Retour au catalogue

STARLINK-38139

ActifCommunicationsSSO
NORAD 100236·PAYLOAD·🇺🇸 United States

Lancé Aug 4, 2026 depuis Vandenberg Space Force Base

Loading…

Prochains Passages (prochaines 24 heures)

TLE

FraisSource: Space-Track

Époque: Sep 14, 2026, 15:02 UTC

1 A0236U 26177Z   26257.62652210  .00021403  00000-0  39378-3 0  9993
2 A0236  97.2832 308.4059 0001715  83.4092 276.7355 15.49212841  6450

Suivez STARLINK-38139 en temps réel avec AllMySat

Download on the App Store